This is the latest recevied weather packets stored in our database for station/object PU3WIW-13. If no packets are shown the sender has not sent any weather packets the latest 10 day(s).
| Time | Temp. | Humidity | Pressure | Rain* | Wind** | Luminosity | Snow |
|---|---|---|---|---|---|---|---|
| 1777580970 | 21.11° C | 10% | 1009.1 hPa | 0 mm | - | - | - |
| 1777580790 | 21.11° C | 10% | 1009.2 hPa | 0 mm | - | - | - |
| 1777580609 | 21.67° C | 10% | 1009.1 hPa | 0 mm | - | - | - |
| 1777580429 | 21.67° C | 10% | 1009 hPa | 0 mm | - | - | - |
| 1777580250 | 21.67° C | 10% | 1009.1 hPa | 0 mm | - | - | - |
| 1777580069 | 22.22° C | 10% | 1009 hPa | 0 mm | - | - | - |
| 1777579890 | 22.22° C | 10% | 1009 hPa | 0 mm | - | - | - |
| 1777579710 | 22.22° C | 10% | 1009.2 hPa | 0 mm | - | - | - |
| 1777579529 | 22.78° C | 10% | 1009.2 hPa | 0 mm | - | - | - |
| 1777579348 | 22.78° C | 10% | 1009.1 hPa | 0 mm | - | - | - |
| 1777579170 | 23.33° C | 10% | 1009.2 hPa | 0 mm | - | - | - |
| 1777578989 | 23.89° C | 10% | 1009.1 hPa | 0 mm | - | - | - |
| 1777578808 | 23.89° C | 10% | 1009.1 hPa | 0 mm | - | - | - |
| 1777578628 | 25° C | 10% | 1009 hPa | 0 mm | - | - | - |
| 1777578450 | 25.56° C | 10% | 1009 hPa | 0 mm | - | - | - |
| 1777578269 | 25° C | 10% | 1008.9 hPa | 0 mm | - | - | - |
| 1777578088 | 24.44° C | 10% | 1008.9 hPa | 0 mm | - | - | - |
| 1777577908 | 24.44° C | 10% | 1008.7 hPa | 0 mm | - | - | - |
| 1777577728 | 24.44° C | 10% | 1008.7 hPa | 0 mm | - | - | - |
| 1777577549 | 24.44° C | 10% | 1008.7 hPa | 0 mm | - | - | - |
| 1777577368 | 25° C | 10% | 1008.7 hPa | 0 mm | - | - | - |
| 1777577187 | 25° C | 10% | 1008.7 hPa | 0 mm | - | - | - |
| 1777577009 | 25° C | 10% | 1008.7 hPa | 0 mm | - | - | - |
| 1777576828 | 25° C | 10% | 1008.7 hPa | 0 mm | - | - | - |
| 1777576647 | 25° C | 10% | 1008.9 hPa | 0 mm | - | - | - |
* Rain latest hour (hover to see other rain measurements)
** Current wind speed in m/s (hover to see current wind gust speed)